When you browse on this site, cookies collect data to enhance your experience and personalize the content and advertising you see.
Visit our Privacy Policy to learn more. By continuing to use the site, you agree to this use of cookies and data.
  • Em Portugal
  • Lista de países
  • Para 7 dias
  • Temperatura da água
  • Mapa do tempo
  • Widgets de tempo
  • user-avatar
    Iniciar Sessão

    Previsão horária em Ghazni

    Hoje, 23 Fevereiro, Domingo

    Tempo Temperatura Precipitação Vento Pressão Humidade
    00:00 -3°C° 0 mm 2 m/s 585 mmHg 63%
    01:00 -4°C° 0 mm 2 m/s 585 mmHg 62%
    02:00 -4°C° 0 mm 2 m/s 585 mmHg 61%
    03:00 -4°C° 0 mm 2 m/s 584 mmHg 59%
    04:00 -5°C° 0 mm 2 m/s 584 mmHg 58%
    05:00 -5°C° 0 mm 2 m/s 584 mmHg 56%
    06:00 -5°C° 0 mm 2 m/s 584 mmHg 54%
    07:00 -5°C° 0 mm 2 m/s 584 mmHg 52%
    08:00 -5°C° 0 mm 2 m/s 584 mmHg 51%
    09:00 -1°C° 0 mm 1 m/s 585 mmHg 61%
    10:00 +1°C° 0 mm 1 m/s 586 mmHg 71%
    11:00 +2°C° 0 mm 1 m/s 586 mmHg 83%
    12:00 +2°C° 0 mm 0 m/s 586 mmHg 87%
    13:00 +2°C° 0 mm 0 m/s 585 mmHg 91%
    14:00 +2°C° 0 mm 0 m/s 585 mmHg 94%
    15:00 +2°C° 0 mm 0 m/s 585 mmHg 85%
    16:00 +3°C° 0 mm 1 m/s 584 mmHg 76%
    17:00 +2°C° 0 mm 1 m/s 584 mmHg 66%
    18:00 +2°C° 0 mm 1 m/s 584 mmHg 65%
    19:00 +1°C° 0 mm 1 m/s 584 mmHg 63%
    20:00 0°C° 0 mm 1 m/s 584 mmHg 61%
    21:00 -2°C° 0 mm 2 m/s 584 mmHg 62%
    22:00 -3°C° 0 mm 2 m/s 584 mmHg 62%
    23:00 -3°C° 0 mm 2 m/s 584 mmHg 62%

    Amanhã, 24 Fevereiro, Segunda-feira

    Tempo Temperatura Precipitação Vento Pressão Humidade
    00:00 -3°C° 0 mm 2 m/s 583 mmHg 62%
    01:00 -4°C° 0 mm 2 m/s 583 mmHg 62%
    02:00 -4°C° 0 mm 2 m/s 582 mmHg 62%
    03:00 -4°C° 0 mm 2 m/s 582 mmHg 62%
    04:00 -4°C° 0 mm 2 m/s 582 mmHg 62%
    05:00 -5°C° 0 mm 2 m/s 581 mmHg 62%
    06:00 -5°C° 0 mm 2 m/s 582 mmHg 62%
    07:00 -4°C° 0 mm 2 m/s 582 mmHg 62%
    08:00 -4°C° 0 mm 2 m/s 582 mmHg 62%
    09:00 -1°C° 0 mm 1 m/s 583 mmHg 70%
    10:00 +1°C° 0 mm 1 m/s 583 mmHg 78%
    11:00 +1°C° 0 mm 0 m/s 584 mmHg 86%
    12:00 +2°C° 0 mm 0 m/s 583 mmHg 89%
    13:00 +2°C° 0 mm 0 m/s 583 mmHg 93%
    14:00 +2°C° 0 mm 0 m/s 582 mmHg 97%
    15:00 +2°C° 0 mm 0 m/s 582 mmHg 89%
    16:00 +2°C° 0 mm 0 m/s 582 mmHg 80%
    17:00 +1°C° 0 mm 0 m/s 581 mmHg 72%
    18:00 +1°C° 0 mm 1 m/s 581 mmHg 70%
    19:00 0°C° 0 mm 1 m/s 581 mmHg 68%
    20:00 -1°C° 0 mm 1 m/s 581 mmHg 66%
    21:00 -1°C° 0 mm 1 m/s 582 mmHg 65%
    22:00 -1°C° 0 mm 1 m/s 582 mmHg 65%
    23:00 -3°C° 0 mm 2 m/s 582 mmHg 64%

    Depois de amanhã, 25 Fevereiro, Terça-feira

    Tempo Temperatura Precipitação Vento Pressão Humidade
    00:00 -3°C° 0 mm 2 m/s 582 mmHg 63%
    01:00 -4°C° 0 mm 2 m/s 581 mmHg 63%
    02:00 -4°C° 0 mm 2 m/s 581 mmHg 62%
    03:00 -4°C° 0 mm 2 m/s 581 mmHg 61%
    04:00 -5°C° 0 mm 2 m/s 581 mmHg 60%
    05:00 -5°C° 0 mm 2 m/s 581 mmHg 59%
    06:00 -5°C° 0 mm 2 m/s 581 mmHg 59%
    07:00 -5°C° 0 mm 2 m/s 581 mmHg 58%
    08:00 -5°C° 0 mm 2 m/s 581 mmHg 58%
    09:00 -3°C° 0 mm 2 m/s 582 mmHg 65%
    10:00 +1°C° 0 mm 1 m/s 583 mmHg 73%
    11:00 +2°C° 0 mm 1 m/s 583 mmHg 80%
    12:00 +1°C° 0 mm 0 m/s 583 mmHg 84%
    13:00 +2°C° 0 mm 0 m/s 583 mmHg 88%
    14:00 +2°C° 0 mm 0 m/s 582 mmHg 92%
    15:00 +2°C° 0 mm 0 m/s 582 mmHg 84%
    16:00 +2°C° 0 mm 0 m/s 582 mmHg 76%
    17:00 +1°C° 0 mm 0 m/s 581 mmHg 68%
    18:00 +1°C° 0 mm 0 m/s 582 mmHg 65%
    19:00 +1°C° 0 mm 1 m/s 582 mmHg 63%
    20:00 0°C° 0 mm 1 m/s 582 mmHg 60%
    21:00 0°C° 0 mm 1 m/s 583 mmHg 59%
    22:00 0°C° 0 mm 1 m/s 583 mmHg 58%
    23:00 0°C° 0 mm 1 m/s 583 mmHg 57%

    26 Fevereiro, Quarta-feira

    Tempo Temperatura Precipitação Vento Pressão Humidade
    00:00 0°C° 0 mm 1 m/s 583 mmHg 58%
    01:00 -2°C° 0 mm 2 m/s 583 mmHg 59%
    02:00 -2°C° 0 mm 2 m/s 583 mmHg 60%
    03:00 0°C° 0 mm 1 m/s 582 mmHg 61%
    04:00 0°C° 0 mm 1 m/s 582 mmHg 62%
    05:00 -1°C° 0 mm 1 m/s 582 mmHg 63%
    06:00 0°C° 0 mm 1 m/s 582 mmHg 63%
    07:00 0°C° 0 mm 1 m/s 583 mmHg 63%
    08:00 0°C° 0 mm 1 m/s 583 mmHg 63%
    09:00 +1°C° 0 mm 1 m/s 583 mmHg 73%
    10:00 +2°C° 0 mm 0 m/s 584 mmHg 82%
    11:00 +3°C° 0 mm 0 m/s 585 mmHg 92%
    12:00 +3°C° 0 mm 0 m/s 584 mmHg 92%
    13:00 +3°C° 0 mm 0 m/s 584 mmHg 92%
    14:00 +4°C° 0 mm 0 m/s 584 mmHg 92%
    15:00 +4°C° 0 mm 0 m/s 583 mmHg 86%
    16:00 +4°C° 0 mm 0 m/s 583 mmHg 80%
    17:00 +4°C° 0 mm 0 m/s 583 mmHg 73%
    18:00 +3°C° 0 mm 0 m/s 583 mmHg 71%
    19:00 +3°C° 0 mm 0 m/s 583 mmHg 70%
    20:00 +4°C° 0 mm 1 m/s 584 mmHg 68%
    21:00 +3°C° 0 mm 0 m/s 584 mmHg 68%
    22:00 +3°C° 0 mm 0 m/s 584 mmHg 68%
    23:00 +3°C° 0 mm 0 m/s 584 mmHg 68%

    27 Fevereiro, Quinta-feira

    Tempo Temperatura Precipitação Vento Pressão Humidade
    00:00 +2°C° 0 mm 0 m/s 583 mmHg 68%
    01:00 +2°C° 0 mm 0 m/s 583 mmHg 67%
    02:00 +1°C° 0 mm 0 m/s 582 mmHg 67%
    03:00 +2°C° 0 mm 1 m/s 582 mmHg 67%
    04:00 +2°C° 0 mm 1 m/s 582 mmHg 67%
    05:00 +2°C° 0 mm 1 m/s 581 mmHg 66%
    06:00 +2°C° 0 mm 1 m/s 582 mmHg 66%
    07:00 +2°C° 0 mm 1 m/s 582 mmHg 65%
    08:00 +3°C° 0 mm 1 m/s 582 mmHg 65%
    09:00 +4°C° 0 mm 1 m/s 582 mmHg 72%
    10:00 +5°C° 0 mm 1 m/s 583 mmHg 80%
    11:00 +5°C° 0 mm 0 m/s 583 mmHg 87%
    12:00 +6°C° 0 mm 1 m/s 583 mmHg 86%
    13:00 +6°C° 0 mm 1 m/s 582 mmHg 86%
    14:00 +7°C° 0 mm 1 m/s 582 mmHg 85%
    15:00 +6°C° 0 mm 1 m/s 581 mmHg 82%
    16:00 +6°C° 0 mm 1 m/s 581 mmHg 80%
    17:00 +6°C° 0 mm 1 m/s 581 mmHg 77%
    18:00 +5°C° 0.1 mm 1 m/s 581 mmHg 77%
    19:00 +4°C° 0.1 mm 1 m/s 581 mmHg 77%
    20:00 +3°C° 0.1 mm 1 m/s 581 mmHg 77%
    21:00 +3°C° 0.1 mm 1 m/s 581 mmHg 81%
    22:00 +3°C° 0.1 mm 1 m/s 581 mmHg 86%
    23:00 +3°C° 0.1 mm 1 m/s 581 mmHg 90%

    28 Fevereiro, Sexta-feira

    Tempo Temperatura Precipitação Vento Pressão Humidade
    00:00 +3°C° 0.1 mm 1 m/s 581 mmHg 90%
    01:00 +2°C° 0.1 mm 1 m/s 581 mmHg 89%
    02:00 +2°C° 0.1 mm 1 m/s 581 mmHg 89%
    03:00 +2°C° 0 mm 1 m/s 580 mmHg 89%
    04:00 +2°C° 0 mm 1 m/s 580 mmHg 89%
    05:00 +2°C° 0 mm 1 m/s 580 mmHg 89%
    06:00 +2°C° 0 mm 1 m/s 581 mmHg 89%
    07:00 +2°C° 0 mm 1 m/s 581 mmHg 88%
    08:00 +2°C° 0 mm 1 m/s 581 mmHg 88%
    09:00 +3°C° 0 mm 1 m/s 582 mmHg 89%
    10:00 +4°C° 0 mm 1 m/s 582 mmHg 89%
    11:00 +4°C° 0 mm 1 m/s 582 mmHg 90%
    12:00 +5°C° 0 mm 1 m/s 582 mmHg 89%
    13:00 +5°C° 0 mm 1 m/s 582 mmHg 87%
    14:00 +6°C° 0 mm 1 m/s 581 mmHg 85%
    15:00 +6°C° 0 mm 1 m/s 581 mmHg 83%
    16:00 +5°C° 0 mm 0 m/s 581 mmHg 81%
    17:00 +4°C° 0 mm 0 m/s 581 mmHg 79%
    18:00 +5°C° 0 mm 1 m/s 581 mmHg 79%
    19:00 +4°C° 0 mm 1 m/s 581 mmHg 79%
    20:00 +3°C° 0 mm 1 m/s 581 mmHg 79%
    21:00 +3°C° 0 mm 1 m/s 581 mmHg 81%
    22:00 +3°C° 0 mm 1 m/s 581 mmHg 83%
    23:00 +3°C° 0 mm 1 m/s 582 mmHg 85%
    Mostrar mais